Flag for Germany Weather past 2 weeks in Freiburg, Baden-Württemberg, Germany

Now
81 °F

Passing clouds.


Feels Like: 81 °F
Forecast: 58 / 77 °F
Wind: 5 mph from West

Location: Freiburg

Current Time: Jul 25, 2014 at 3:44:52 PM

Latest Report: Jul 25, 2014 at 3:00 PM


Visibility: 16 mi

Pressure: 29.85 "Hg

Humidity: 45%

Dew point: 58 °F

Location of FreiburgLocation

Historic Weather in Freiburg — Graph

°F

Freiburg temperature yesterday

Maximum temperature yesterday: 80 °F (at 4:00 PM)
Minimum temperature yesterday: 56 °F (at 6:00 AM)
Average temperature yesterday: 67 °F

Past Weeks' High & Low Weather Summary

 TemperatureHumidityPressure
High90 °F (Jul 18, 6:00 PM)98% (Jul 13, 6:00 AM)30.20 "Hg (Jul 13, 6:00 AM)
Low51 °F (Jul 15, 6:00 AM)28% (Jul 18, 6:00 PM)29.80 "Hg (Jul 20, 2:00 AM)
Average68 °F77%29.97 "Hg
* Reported Jul 10 1:00 PM — Jul 25 1:00 PM, Freiburg, Weather by CustomWeather, © 2014

Note: Actual official high and low records may vary slightly from our data, if they occured in-between our weather recording intervals... More about our weather records

Advertising

Freiburg weather history for previous 24 hours

 ConditionsComfort  
Time TempWeatherWind HumidityBarometerVisibility
1:00 PM
Jul 25
77 °FPassing clouds.2 mph58%29.88 "Hg19 mi
12:00 PM74 °FPassing clouds.2 mph62%29.90 "Hg16 mi
10:00 AM69 °FScattered clouds.1 mph70%29.92 "Hg13 mi
9:00 AM66 °FSunny.1 mph75%29.92 "Hg17 mi
8:00 AM61 °FSunny.2 mph88%29.93 "Hg11 mi
7:00 AM56 °FPassing clouds.1 mph95%29.94 "Hg6 mi
6:00 AM54 °FSunny.1 mph95%29.94 "Hg6 mi
4:00 AM56 °FPassing clouds.No wind93%29.92 "Hg9 mi
3:00 AM57 °FClear.1 mph93%29.93 "Hg9 mi
1:00 AM58 °FClear.1 mph90%29.93 "Hg14 mi
12:00 AM61 °FClear.1 mph85%29.93 "Hg17 mi
10:00 PM
Jul 24
69 °FPassing clouds.3 mph66%29.89 "Hg28 mi
9:00 PM72 °FSunny.3 mph55%29.88 "Hg34 mi
7:00 PM74 °FScattered clouds.7 mph51%29.86 "Hg19 mi
6:00 PM80 °FPassing clouds.2 mph42%29.85 "Hg25 mi
4:00 PM80 °FSunny.6 mph43%29.85 "Hg14 mi
3:00 PM80 °FSunny.5 mph49%29.84 "Hg19 mi
Weather by CustomWeather, © 2014

See weather overviewHow to use our weather pages